Regional Weather Roundup
Issued by NWS Mt. Holly, NJ

Home | Current Version | Previous Version | Text Only | Print | Product List | Glossary On
Versions: 1 2 3 4 5 6 7 8 9 10 11 12 13 14 15 16 17 18 19 20 21 22 23 24 25 26 27
000
ASUS41 KPHI 270512
RWRPHI

REGIONAL WEATHER ROUNDUP
NATIONAL WEATHER SERVICE MOUNT HOLLY NJ
100 AM EDT TUE JUN 27 2017

NOTE:  "FAIR" INDICATES FEW OR NO CLOUDS BELOW 12,000 FEET WITH NO
SIGNIFICANT WEATHER AND/OR OBSTRUCTIONS TO VISIBILITY.

 * = STATION DOES NOT REPORT PRECIPITATION (E.G. RAIN, SNOW, ETC.)
        OR FOG.

NJZ015>026-270600-
SOUTHERN NEW JERSEY

CITY           SKY/WX    TMP DP  RH WIND       PRES   REMARKS
POMONA         CLEAR     67  62  84 CALM      30.00F
WILDWOOD*      CLEAR     65  59  81 S6        30.00F
MILLVILLE      CLEAR     60  60 100 CALM      29.99F
WRIGHTSTOWN    CLEAR     61  53  76 CALM      30.01S
MOUNT HOLLY      N/A     62  53  72 VRB3      29.98F
TRENTON        MOCLDY    68  51  54 CALM      29.99S

$$
NJZ001>014-270600-
NORTHERN NEW JERSEY

CITY           SKY/WX    TMP DP  RH WIND       PRES   REMARKS
SUSSEX         CLOUDY    64  51  62 VRB3      30.03R
ANDOVER*         N/A     63  51  65 NE5       30.02R
MORRISTOWN     CLOUDY    57  55  94 CALM      29.99S
NEWARK         MOCLDY    69  50  50 SW6       29.98S
TETERBORO      PTCLDY    68  49  50 CALM      29.97F
CALDWELL       MOCLDY    63  52  67 CALM      29.99F
SOMERVILLE     MOCLDY    60  56  86 NW5G17    29.99R
ALLAIRE*       CLEAR     64  51  62 S5        30.00F
TOMS RIVER*    PTCLDY    56  51  84 CALM      30.00F

$$
PAZ043-044-047-054-055-060>062-066>071-270600-
EASTERN PENNSYLVANIA

CITY           SKY/WX    TMP DP  RH WIND       PRES   REMARKS
PHILADELPHIA   PTCLDY    68  57  68 S5        29.98F
NORTH PHILA    CLOUDY    68  55  63 NW3       30.01R
BLUE BELL*     CLOUDY    64  52  63 NW3       30.01S
DOYLESTOWN     CLOUDY    66  52  60 N5        30.00R
QUAKERTOWN*    CLOUDY    64  54  68 CALM      30.02F
PERKASIE*      CLOUDY    64  54  68 NW3       30.02S
POTTSTOWN      CLOUDY    63  53  70 NE3       30.01F
LANCASTER      CLOUDY    64  59  83 NW8       30.02R
COATESVILLE    HVY RAIN  63  57  82 VRB7G21   30.04R
READING        CLOUDY    63  59  87 N8        30.00F
ALLENTOWN      LGT RAIN  63  56  78 CALM      30.02R
MOUNT POCONO   CLOUDY    54  53  97 NW3       30.04F
HAZLETON         N/A     52  48  87 CALM      30.06F FOG
LEHIGHTON      CLOUDY    59  57  94 CALM      30.03F
WILKES BARRE   MOCLDY    58  55  90 VRB3      30.02F

$$
DEZALL-MDZ008-012-015-019-020-270600-
DELAWARE AND EASTERN MARYLAND

CITY           SKY/WX    TMP DP  RH WIND       PRES   REMARKS
WILMINGTON     PTCLDY    68  58  70 S6        29.99S
DOVER          CLEAR     67  58  72 S9        29.98S
GEORGETOWN     CLEAR     66  58  75 S6        30.01F
EASTON         CLEAR     70  58  66 S5        30.03S
PATUXENT       CLEAR     71  62  73 S7        29.99S
OCEAN CITY     CLEAR     71  63  75 SW5       30.02S
WALLOPS ISLAND PTCLDY    69  64  84 S6        30.02S
CAMBRIDGE      CLEAR     66  61  82 SE5       30.00S
SALISBURY      CLEAR     64  61  90 S6        30.01S

$$
PAZ001-021-NYZ056-072-MDZ011-DCZ001-270600-
OTHER NEARBY LOCATIONS

CITY           SKY/WX    TMP DP  RH WIND       PRES   REMARKS
HARRISBURG     MOCLDY    63  58  83 NW6       30.01S
STATE COLLEGE  PTCLDY    58  50  74 CALM      30.03S
WILLIAMSPORT   MOCLDY    59  55  87 N3        30.00F
BINGHAMTON     CLOUDY    53  51  93 SW6       30.01S
NEW YORK CITY  CLEAR     72  48  42 CALM      30.01S
BALTIMORE      CLOUDY    71  58  63 W6        29.99R
WASHINGTON DC  MOCLDY    75  53  46 NW10G17   30.01R

$$




USA.gov is the U.S. government's official web portal to all federal, state and local government web resources and services.